Tracking 30922 objects as of 2-Jul-2025
HD Live streaming from Space Station
objects crossing your sky now

STARLINK-32503

Track STARLINK-32503 now!
10-day predictions
STARLINK-32503 is classified as:


NORAD ID: 62157
Int'l Code: 2024-224U
Perigee: 489.8 km
Apogee: 490.6 km
Inclination: 43.0 °
Period: 94.3 minutes
Semi major axis: 6861 km
RCS: Unknown
Launch date: November 30, 2024
Source: (USA)
Launch site: AIR FORCE EASTERN TEST RANGE (AFETR)
Your satellite tracking list
STARLINK-5219
Track 1 satellite(s)




NASA's NSSDC Master Catalog

Two Line Element Set (TLE):
1 62157U 24224U   25182.92947420  .00020656  00000-0  75786-3 0  9995
2 62157  42.9984 141.6889 0000607 265.0107  95.0676 15.27587075 33613
Source of the keplerian elements: AFSPC